Terminal Aerodrome Forecast
Issued by NWS North Platte, NE

Home | Current Version | Previous Version | Text Only | Print | Product List | Glossary Off
Versions: 1 2 3 4 5 6 7 8 9 10 11 12 13 14 15 16 17 18 19 20 21 22 23 24 25 26

000
FTUS43 KLBF 222200 AAC
TAFVTN
TAF AMD
KVTN 222257Z 2223/2318 31013G25KT 2SM -SN SCT008 OVC012
      TEMPO 2223/2301 3SM -SN BKN008
     FM230100 32021G30KT 1SM -SN BLSN OVC008
     FM231600 33025G34KT 5SM -SN BLSN OVC011=

USA.gov is the U.S. government's official web portal to all federal, state and local government web resources and services.